LEMG Airport Information

Runway Information
Runway 12 Length 9022 ft width 148 ft
Elevation 52 ft Threshold 0 ft Heading 119
Runway 30 Length 9022 ft Width 148 ft
Elevation 31 ft Threshold 0 ft Heading 299
Runway 13 Length 10500 ft width 148 ft
Elevation 52 ft Threshold 0 ft Heading 133
Runway 31 Length 10500 ft Width 148 ft
Elevation 31 ft Threshold 0 ft Heading 313
Airport Frequencies
Type A/D Name APP Frequency 123.85 MHZ
Type ATIS Name ATIS Frequency 120.375 MHZ
Type CLD Name CLR DEL Frequency 121.875 MHZ
Type GND Name GND-W Frequency 121.7 MHZ
Type GND Name GND-E Frequency 121.95 MHZ
Type TWR Name TWR-W (RWY Frequency 118.15 MHZ
Type TWR Name TWR-E (RWY Frequency 118.775 MHZ
Airport Navaids
Type VOR-DME Name Martin Frequency 112600 KHZ
Type VOR-DME Name Malaga Frequency 112000 KHZ
Type VOR-DME Name Malaga Frequency 113550 KHZ
Type NDB Name Malaga Frequency 330 KHZ
Airport Weather Information & NOTAM
ADDS - METARS form results

(1009 UTC 18 August 2018)
 
METAR text: LEMG 181000Z 12008KT 080V150 9999 FEW024 27/21 Q1018 NOSIG
Conditions at: LEMG (MALAGA (CIV/MIL), ES) observed 1000 UTC 18 August 2018
Temperature: 27.0°C (81°F)
Dewpoint: 21.0°C (70°F) [RH = 70%]
Pressure (altimeter): 30.06 inches Hg (1018.0 mb)
Winds: from the ESE (120 degrees) at 9 MPH (8 knots; 4.2 m/s)
Visibility: 6 or more miles (10+ km)
Ceiling: at least 12,000 feet AGL
Clouds: few clouds at 2400 feet AGL
Weather: no significant weather observed at this time

METAR text: LEMG 180930Z 12007KT 060V160 9999 FEW024 27/21 Q1018 NOSIG
Conditions at: LEMG (MALAGA (CIV/MIL), ES) observed 0930 UTC 18 August 2018
Temperature: 27.0°C (81°F)
Dewpoint: 21.0°C (70°F) [RH = 70%]
Pressure (altimeter): 30.06 inches Hg (1018.0 mb)
Winds: from the ESE (120 degrees) at 8 MPH (7 knots; 3.6 m/s)
Visibility: 6 or more miles (10+ km)
Ceiling: at least 12,000 feet AGL
Clouds: few clouds at 2400 feet AGL
Weather: no significant weather observed at this time